[[{"header":{"parameterUnit":"m.s-1","parameterCategory":1,"la1":30.2991,"la2":30.254,"lo1":-89.0895,"lo2":-89.0444,"dy":0.0017,"dx":0.0017,"nx":28,"ny":28,"refTime":"2023-07-23T21:00:00:Z","depth":0,"parameterNumber":2,"parameterNumberName":"U-component_of_WINDS"},"data":[0,0,0,0,0,0,0,0,0,0,0,0,0,0,0,0,0,0,0,0,0,0,0,0,0,0,0,0,0,0,0,0,0,0,0,0,0,0,0,0,0,0,0,0,0,0,0,0,0,0,0,0,0,0,0,0,0,0,0.9784,0.9786,0,0.9912,0.9914,0.9915,0.9946,0.9946,0.9945,0.9944,1.0076,1.0081,1.0085,0,0,0,0,0,0,0,0,0,0,0,0,0,0.9569,0.9572,0.9784,0.9786,0.9787,0.9912,0.9914,0.9915,0.9947,0.9946,0.9945,0.9944,1.0075,1.008,1.0085,0,0,0,0,0,0,0,0,0,0,0,0,0,0.9676,0.9574,0.9784,0.9818,0.9822,0.9912,0.9914,0.9916,0.9947,0.9946,0.9944,0.9943,1.0073,1.008,1.0086,1.0151,0,0,1.0106,1.0108,0,0,0,0,0,0,0,0,0.967,0.9684,0.9811,0.9816,0.9821,0.9912,0.9886,0.9995,0.9947,0.99,0.9944,0.9943,1.0023,1.0033,1.006,1.0157,1.0163,1.0106,1.011,1.0113,1.0115,0,0,0,0,0,0,0,0.9662,0.9678,0.9835,0.9813,0.9819,0.9827,0.9841,0.9907,0.9967,0.9904,0.9906,0.9921,1.0025,1.0054,1.0063,1.0165,1.0106,1.0112,1.0116,1.0118,1.0321,1.0323,0,0,0,0,0,0,0.9649,0.9672,0.9831,0.9839,0.9741,0.9832,0.9848,0.9884,0.9966,0.9977,0.9922,0.9922,1.0043,1.0056,1.0068,1.015,1.0113,1.0119,1.0123,1.032,1.0322,1.0323,0,0,0,0,0,0,0.9644,0.9663,0.9826,0.9756,0.9778,0.9837,0.9878,0.9887,0.9916,0.998,0.9991,0.994,1.0043,1.0059,1.013,1.0155,1.0122,1.0128,1.0318,1.032,1.0323,1.0313,0,0,0,0,0,0,0.9638,0.9661,0.9686,0.9756,0.9781,0.9885,0.9879,0.9891,0.9927,0.9928,1.0,1.001,1.0043,1.012,1.0136,1.0163,1.0133,1.0316,1.0319,1.0322,1.0311,1.0315,1.0317,0,0,0,0,0,0.963,0.9678,0.9687,0.9706,0.9814,0.9886,0.99,0.9937,0.9929,0.9954,0.9995,1.0008,1.0149,1.0127,1.0146,1.0175,1.0315,1.0318,1.0322,1.031,1.0314,1.0317,0,0,0,0,0,0,0.9609,0.9688,0.9699,0.9771,0.9822,0.9891,0.9925,0.994,0.9994,0.9993,1.0036,1.0052,1.012,1.0155,1.0128,1.0242,1.0232,1.0239,1.0217,1.0221,1.0224,1.0215,1.0138,0,0,0,0,0,0.9613,0.9665,0.9731,0.9789,0.9814,0.9865,0.9898,0.9921,0.9976,0.9997,1.0044,1.0096,1.0153,1.0189,1.0244,1.0316,1.0333,1.0345,1.0348,1.0351,1.0357,1.0398,1.0404,1.0335,1.0335,1.0335,0,0,0.9622,0.9671,0.9701,0.9786,0.9828,0.9881,0.9883,0.9939,0.9979,1.0006,1.0076,1.0111,1.0173,1.0245,1.0279,1.0276,1.0379,1.0355,1.0356,1.0361,1.0402,1.0408,1.0414,1.0337,1.0337,1.0336,0,0,0.9664,0.9707,0.976,0.9802,0.9865,0.9899,0.9911,0.9979,1.0003,1.0074,1.0095,1.0144,1.024,1.0283,1.0317,1.0376,1.039,1.0393,1.0409,1.0449,1.0454,1.0459,1.048,1.0487,1.0399,1.0399,1.0399,0,0.9667,0.9748,0.9785,0.9841,0.9877,0.9904,0.9957,0.9997,1.0075,1.01,1.0095,1.0216,1.0259,1.0341,1.0356,1.0383,1.0399,1.0385,1.045,1.0456,1.0461,1.0482,1.049,1.0398,1.0398,1.0398,1.0399,0,0.9748,0.9804,0.9839,0.9914,0.9954,1.0009,1.0054,1.0091,1.0111,1.0145,1.0217,1.0269,1.0336,1.0357,1.0377,1.0443,1.0439,1.0441,1.0433,1.0467,1.0487,1.0495,1.0398,1.0398,1.0398,1.0398,0,0,0.9782,0.9876,0.9888,0.9922,0.9994,1.0038,1.0094,1.0158,1.0189,1.0242,1.029,1.0371,1.0374,1.0413,1.0438,1.0472,1.0516,1.0471,1.0473,1.0478,1.0592,1.0589,1.0598,1.0525,1.0527,1.0529,1.0586,0,0.9834,0.9934,0.9969,1.0051,1.0103,1.0129,1.0178,1.0227,1.026,1.031,1.0347,1.0403,1.0403,1.0427,1.0462,1.0503,1.0539,1.0499,1.0571,1.0573,1.0555,1.0608,1.0606,1.0658,1.0595,1.0596,1.0597,0,0.9908,0.9961,1.0049,1.0114,1.0137,1.018,1.0242,1.0289,1.0346,1.0368,1.0411,1.0434,1.0493,1.048,1.0564,1.0536,1.0567,1.0592,1.0594,1.0603,1.0587,1.0618,1.0676,1.0683,1.061,1.0609,1.0608,0,0.9923,1.0017,1.0082,1.0111,1.0188,1.0218,1.0252,1.0307,1.0344,1.0398,1.0422,1.0483,1.0516,1.0563,1.0602,1.0589,1.0681,1.0672,1.0702,1.0701,1.072,1.0719,1.0784,1.074,1.074,1.074,1.074,0,0.9978,1.003,1.009,1.013,1.019,1.023,1.0288,1.0324,1.0373,1.042,1.0446,1.049,1.0539,1.0589,1.062,1.0684,1.0699,1.0719,1.0726,1.0717,1.0714,1.0738,1.0736,1.0742,1.0741,1.0741,1.0741,0,1.0005,1.0048,1.012,1.0187,1.0206,1.0247,1.0305,1.0345,1.0379,1.0439,1.0455,1.051,1.057,1.0614,1.0692,1.0713,1.0782,1.0789,1.0763,1.0767,1.0794,1.0791,1.0877,1.0891,1.0837,1.0838,1.0838,0,1.0037,1.0078,1.015,1.0184,1.0217,1.0271,1.0308,1.0349,1.0387,1.0455,1.0487,1.0549,1.0601,1.0697,1.0744,1.0804,1.0814,1.084,1.0823,1.0812,1.0814,1.0812,1.0816,1.0842,1.0842,1.0843,1.0843,0,1.0089,1.0108,1.0161,1.0221,1.0265,1.0314,1.0364,1.039,1.044,1.0481,1.0543,1.0584,1.0664,1.0725,1.079,1.0826,1.0843,1.0848,1.0858,1.0849,1.0832,1.0842,1.077,1.0846,1.0845,1.0845,1.0845,1.0845,1.012,1.0158,1.0215,1.0273,1.0314,1.036,1.0401,1.044,1.0493,1.0561,1.0582,1.0646,1.0703,1.0791,1.0828,1.0879,1.0878,1.0892,1.0896,1.0899,1.0899,1.0823,1.0891,1.0891,1.0891,1.0891,1.0891,0,1.0174,1.0212,1.0264,1.0333,1.0379,1.039,1.0446,1.0483,1.054,1.0591,1.0641,1.0713,1.0773,1.0825,1.0887,1.0919,1.0928,1.0934,1.0932,1.094,1.0897,1.0882,1.0925,1.0925,1.0925,1.0925,1.0925,1.0925,1.0207,1.0272,1.0297,1.0383,1.0421,1.0484,1.0515,1.0557,1.0598,1.0677,1.0727,1.0759,1.0811,1.0877,1.0933,1.0947,1.0969,1.0973,1.0988,1.0947,1.0943,1.0939,1.0925,1.0977,1.0977,1.1027,1.1028,1.1028]},{"header":{"parameterUnit":"m.s-1","parameterCategory":1,"la1":30.2991,"la2":30.254,"lo1":-89.0895,"lo2":-89.0444,"dy":0.0017,"dx":0.0017,"nx":28,"ny":28,"refTime":"2023-07-23T21:00:00:Z","depth":0,"parameterNumber":3,"parameterNumberName":"V-component_of_WINDS"},"data":[0,0,0,0,0,0,0,0,0,0,0,0,0,0,0,0,0,0,0,0,0,0,0,0,0,0,0,0,0,0,0,0,0,0,0,0,0,0,0,0,0,0,0,0,0,0,0,0,0,0,0,0,0,0,0,0,0,0,3.0971,3.097,0,3.0918,3.0918,3.0917,3.0893,3.0893,3.0893,3.0893,3.0833,3.0832,3.083,0,0,0,0,0,0,0,0,0,0,0,0,0,3.1046,3.1044,3.0971,3.097,3.097,3.0918,3.0918,3.0917,3.0892,3.0893,3.0893,3.0893,3.0834,3.0832,3.083,0,0,0,0,0,0,0,0,0,0,0,0,0,3.1005,3.1044,3.0971,3.0951,3.0949,3.0918,3.0918,3.0917,3.0892,3.0893,3.0893,3.0893,3.0835,3.0832,3.083,3.0813,0,0,3.0822,3.0821,0,0,0,0,0,0,0,0,3.1007,3.1002,3.0955,3.0953,3.095,3.0912,3.0922,3.0882,3.0892,3.0914,3.0893,3.0893,3.0859,3.0855,3.0845,3.081,3.0808,3.0822,3.0821,3.082,3.0819,0,0,0,0,0,0,0,3.101,3.1004,3.095,3.0954,3.0951,3.0944,3.0938,3.0914,3.0886,3.0912,3.091,3.0904,3.0858,3.0847,3.0843,3.0807,3.0822,3.082,3.0819,3.0818,3.0757,3.0756,0,0,0,0,0,0,3.1017,3.1007,3.0951,3.0948,3.098,3.0942,3.0936,3.0924,3.0887,3.0881,3.0904,3.0904,3.0851,3.0846,3.0841,3.0819,3.082,3.0817,3.0816,3.0757,3.0757,3.0756,0,0,0,0,0,0,3.1019,3.1012,3.0954,3.0977,3.0969,3.0941,3.0928,3.0923,3.0912,3.0881,3.0876,3.0899,3.0851,3.0844,3.0821,3.0817,3.0816,3.0814,3.0757,3.0757,3.0756,3.0775,0,0,0,0,0,0,3.1021,3.1013,3.1007,3.0977,3.0968,3.0936,3.0928,3.0922,3.0909,3.0907,3.0874,3.0869,3.085,3.0824,3.0818,3.0813,3.0812,3.0757,3.0757,3.0757,3.0775,3.0776,3.0776,0,0,0,0,0,3.1024,3.1013,3.1007,3.1001,3.0961,3.0936,3.093,3.0911,3.0908,3.0902,3.0882,3.087,3.0818,3.0822,3.0815,3.0809,3.0757,3.0757,3.0757,3.0774,3.0776,3.0776,0,0,0,0,0,0,3.1042,3.1009,3.1002,3.0982,3.0962,3.0932,3.0923,3.0912,3.0891,3.089,3.0865,3.0858,3.0837,3.082,3.0826,3.0791,3.0787,3.0785,3.0803,3.0803,3.0804,3.0808,3.081,0,0,0,0,0,3.1044,3.1028,3.0999,3.0984,3.0975,3.0951,3.0939,3.0926,3.0904,3.0895,3.0873,3.085,3.0829,3.0815,3.0794,3.0773,3.0765,3.0765,3.0766,3.0767,3.0765,3.0753,3.0752,3.0755,3.0755,3.0755,0,0,3.1047,3.1027,3.1018,3.0988,3.0971,3.0954,3.0944,3.0926,3.0912,3.0891,3.0868,3.0852,3.0825,3.0802,3.0791,3.0788,3.0763,3.0766,3.0767,3.0765,3.0752,3.0752,3.0752,3.0755,3.0755,3.0755,0,0,3.1044,3.1028,3.1014,3.0998,3.0973,3.0957,3.0954,3.0925,3.0914,3.0891,3.0875,3.0858,3.0822,3.0804,3.0789,3.0781,3.0769,3.0775,3.0778,3.0767,3.0766,3.0766,3.0763,3.0762,3.0773,3.0773,3.0773,0,3.1051,3.1026,3.1008,3.0991,3.0978,3.096,3.0945,3.093,3.0899,3.0889,3.0887,3.0842,3.0822,3.0795,3.0794,3.0783,3.0777,3.0778,3.0768,3.0768,3.0767,3.0764,3.0763,3.0774,3.0774,3.0774,3.0774,0,3.1035,3.1018,3.101,3.0982,3.0968,3.0952,3.0931,3.0918,3.0907,3.0891,3.0867,3.0844,3.0817,3.081,3.0798,3.0782,3.078,3.0773,3.0768,3.0768,3.0764,3.0763,3.0775,3.0775,3.0775,3.0775,0,0,3.1041,3.1006,3.1003,3.099,3.0962,3.0948,3.0931,3.0907,3.0897,3.0876,3.0861,3.0831,3.0825,3.0809,3.0794,3.0784,3.0779,3.0778,3.0777,3.0779,3.076,3.0765,3.0764,3.0772,3.0771,3.0771,3.0762,0,3.1035,3.1006,3.0989,3.0967,3.095,3.0934,3.0919,3.09,3.0884,3.0867,3.0849,3.0829,3.0822,3.0813,3.0802,3.0782,3.0775,3.0783,3.0756,3.0755,3.0763,3.0762,3.0768,3.0761,3.0761,3.076,3.076,0,3.1023,3.1005,3.0981,3.0956,3.0948,3.0935,3.0913,3.0897,3.0874,3.0864,3.0847,3.0833,3.0813,3.081,3.0782,3.0788,3.0776,3.0765,3.0764,3.076,3.0757,3.0758,3.0758,3.0757,3.0758,3.0758,3.0758,0,3.103,3.0999,3.0981,3.0971,3.0941,3.0932,3.0919,3.0897,3.0884,3.0863,3.0855,3.0831,3.0819,3.08,3.078,3.078,3.0754,3.0749,3.0744,3.0745,3.0739,3.0739,3.0736,3.0732,3.0732,3.0732,3.0732,0,3.1024,3.101,3.0984,3.0973,3.0957,3.0937,3.0921,3.0906,3.0887,3.0872,3.0855,3.0841,3.0815,3.0797,3.0781,3.0761,3.0755,3.0745,3.0741,3.0746,3.0748,3.0738,3.0737,3.0731,3.0732,3.0732,3.0732,0,3.1028,3.1011,3.099,3.0964,3.0957,3.0946,3.0923,3.0911,3.0896,3.0877,3.0871,3.0846,3.0824,3.0803,3.0772,3.0762,3.0741,3.0736,3.075,3.0747,3.0743,3.0744,3.0733,3.073,3.0728,3.0728,3.0728,0,3.1025,3.1015,3.0988,3.0978,3.0966,3.0949,3.0936,3.0917,3.0904,3.0878,3.0869,3.0847,3.0828,3.0793,3.0771,3.0748,3.0742,3.074,3.0738,3.0744,3.0742,3.0742,3.0741,3.074,3.074,3.0741,3.0741,0,3.1022,3.1015,3.0998,3.0978,3.0964,3.0948,3.093,3.0922,3.0899,3.0885,3.0864,3.0849,3.082,3.0797,3.0772,3.0757,3.0744,3.0742,3.0739,3.0744,3.0753,3.0748,3.0751,3.0742,3.0742,3.0741,3.0741,3.0741,3.1023,3.1013,3.0993,3.0975,3.096,3.0945,3.0933,3.0916,3.0899,3.0875,3.0864,3.0843,3.082,3.0785,3.077,3.0752,3.0749,3.0745,3.0744,3.0743,3.0745,3.0757,3.0747,3.0747,3.0747,3.0747,3.0747,0,3.1019,3.1006,3.099,3.0967,3.0952,3.0945,3.0925,3.0913,3.0895,3.0876,3.0858,3.0834,3.0812,3.079,3.0766,3.0756,3.075,3.0751,3.0751,3.0748,3.0749,3.0754,3.0756,3.0756,3.0756,3.0756,3.0756,3.0756,3.1015,3.0998,3.0988,3.0963,3.0949,3.093,3.0919,3.0904,3.0889,3.0863,3.0846,3.0832,3.0811,3.0787,3.0766,3.076,3.0752,3.0754,3.0746,3.0748,3.0747,3.0747,3.0751,3.0753,3.0753,3.0746,3.0746,3.0746]}]]